OE3APM-13 Weather Reports


Display with metric or nautical units.
time (UTC)temp
F
wind
direction
speed
MPH
gust
MPH
rain 1hr
in
rain 24hr
in
rain mn
in
humidity
%
barometer
mb
20260904203142 64 228 1.0 2.0 0.00 0.00 0.00 72 1014.3
20260904202640 64 228 0.0 2.0 0.00 0.00 0.00 72 1014.3
20260904202137 64 229 0.0 0.0 0.00 0.00 0.00 70 1014.4
20260904201635 64 228 0.0 0.0 0.00 0.00 0.00 71 1014.4
20260904201134 65 228 0.0 0.0 0.00 0.00 0.00 69 1014.5
20260904200634 65 228 0.0 0.0 0.00 0.00 0.00 70 1014.5
20260904200133 65 228 0.0 0.0 0.00 0.00 0.00 70 1014.5
20260904195633 66 228 0.0 0.0 0.00 0.00 0.00 68 1014.7
20260904195131 66 229 0.0 0.0 0.00 0.00 0.00 67 1014.5
20260904194631 67 228 0.0 0.0 0.00 0.00 0.00 67 1014.5
20260904194131 67 228 0.0 0.0 0.00 0.00 0.00 67 1014.5
20260904193629 67 228 0.0 0.0 0.00 0.00 0.00 65 1014.5
20260904193131 68 228 0.0 0.0 0.00 0.00 0.00 64 1014.4
20260904192629 68 228 0.0 0.0 0.00 0.00 0.00 63 1014.5
20260904192129 69 228 0.0 0.0 0.00 0.00 0.00 63 1014.4
20260904191629 69 228 0.0 0.0 0.00 0.00 0.00 63 1014.5
20260904191123 70 228 0.0 0.0 0.00 0.00 0.00 62 1014.5
20260904190623 71 228 0.0 0.0 0.00 0.00 0.00 60 1014.5
20260904190119 71 228 0.0 0.0 0.00 0.00 0.00 60 1014.4
20260904185617 72 228 0.0 0.0 0.00 0.00 0.00 60 1014.4
20260904185117 73 228 0.0 0.0 0.00 0.00 0.00 58 1014.3
20260904184615 74 228 0.0 0.0 0.00 0.00 0.00 56 1014.3
20260904184115 75 228 0.0 0.0 0.00 0.00 0.00 55 1014.3
20260904183614 75 228 0.0 0.0 0.00 0.00 0.00 53 1014.2
20260904183113 76 228 0.0 0.0 0.00 0.00 0.00 54 1014.2
20260904182613 77 228 0.0 3.0 0.00 0.00 0.00 52 1014.1
20260904182112 77 228 1.0 4.0 0.00 0.00 0.00 49 1014.1
20260904181611 77 228 3.0 5.0 0.00 0.00 0.00 47 1014.0
20260904181109 77 228 3.0 5.0 0.00 0.00 0.00 47 1013.9
20260904180607 78 232 4.0 6.0 0.00 0.00 0.00 46 1013.8
20260904180108 78 254 4.0 7.0 0.00 0.00 0.00 46 1013.7
20260904175605 78 240 5.0 8.0 0.00 0.00 0.00 45 1013.7
20260904175102 78 221 5.0 8.0 0.00 0.00 0.00 45 1013.6
20260904174601 79 229 6.0 12.0 0.00 0.00 0.00 45 1013.6
20260904174100 79 227 6.0 12.0 0.00 0.00 0.00 45 1013.6
20260904173601 79 248 6.0 11.0 0.00 0.00 0.00 44 1013.7
20260904173053 79 215 6.0 11.0 0.00 0.00 0.00 44 1013.7
20260904172553 80 236 5.0 11.0 0.00 0.00 0.00 44 1013.7
20260904172052 80 220 5.0 10.0 0.00 0.00 0.00 44 1013.7
20260904171551 80 236 5.0 10.0 0.00 0.00 0.00 43 1013.8
20260904171051 80 242 6.0 11.0 0.00 0.00 0.00 43 1013.8
20260904170549 80 221 6.0 13.0 0.00 0.00 0.00 43 1013.8
20260904170051 81 214 6.0 13.0 0.00 0.00 0.00 43 1013.7
20260904165546 81 259 6.0 11.0 0.00 0.00 0.00 43 1013.7
20260904165048 81 259 6.0 12.0 0.00 0.00 0.00 42 1013.7
20260904164545 81 252 8.0 16.0 0.00 0.00 0.00 42 1013.8
20260904164043 82 219 8.0 17.0 0.00 0.00 0.00 42 1013.8
20260904163541 82 196 8.0 18.0 0.00 0.00 0.00 41 1013.8
20260904163041 82 296 7.0 18.0 0.00 0.00 0.00 41 1013.9
20260904162541 82 254 7.0 16.0 0.00 0.00 0.00 41 1013.9
20260904162039 83 234 8.0 18.0 0.00 0.00 0.00 41 1014.0
20260904161538 83 262 8.0 18.0 0.00 0.00 0.00 40 1014.0
20260904161037 83 265 8.0 16.0 0.00 0.00 0.00 40 1014.1
20260904160539 83 211 8.0 16.0 0.00 0.00 0.00 40 1014.1
20260904160032 83 217 8.0 18.0 0.00 0.00 0.00 40 1014.1
20260904155530 83 243 10.0 20.0 0.00 0.00 0.00 39 1014.2
20260904155032 84 244 10.0 20.0 0.00 0.00 0.00 39 1014.2
20260904154531 84 232 9.0 19.0 0.00 0.00 0.00 39 1014.4
20260904154033 84 241 10.0 19.0 0.00 0.00 0.00 39 1014.3
20260904153532 84 266 8.0 18.0 0.00 0.00 0.00 39 1014.3
20260904153030 84 213 8.0 15.0 0.00 0.00 0.00 39 1014.4
20260904152531 84 230 8.0 17.0 0.00 0.00 0.00 39 1014.5
20260904152031 85 220 8.0 20.0 0.00 0.00 0.00 39 1014.8
20260904151532 85 223 7.0 20.0 0.00 0.00 0.00 39 1014.8
20260904151031 85 196 7.0 15.0 0.00 0.00 0.00 39 1014.9
20260904150531 85 221 7.0 13.0 0.00 0.00 0.00 41 1015.0
20260904150030 85 244 7.0 12.0 0.00 0.00 0.00 41 1015.0
20260904145531 85 240 7.0 17.0 0.00 0.00 0.00 40 1015.1
20260904145031 85 263 7.0 17.0 0.00 0.00 0.00 41 1015.2
20260904144531 85 232 7.0 15.0 0.00 0.00 0.00 41 1015.3
20260904144030 85 214 7.0 15.0 0.00 0.00 0.00 41 1015.3
20260904143524 85 249 8.0 17.0 0.00 0.00 0.00 41 1015.5
20260904143019 85 248 8.0 17.0 0.00 0.00 0.00 41 1015.4
20260904142517 85 222 7.0 16.0 0.00 0.00 0.00 41 1015.6
20260904142017 84 281 7.0 16.0 0.00 0.00 0.00 41 1015.7
20260904141518 84 259 9.0 15.0 0.00 0.00 0.00 41 1015.8
20260904141016 84 221 9.0 16.0 0.00 0.00 0.00 41 1015.8
20260904140517 84 273 8.0 22.0 0.00 0.00 0.00 42 1015.9
20260904140015 84 248 8.0 22.0 0.00 0.00 0.00 43 1015.8
20260904135514 83 222 11.0 22.0 0.00 0.00 0.00 43 1015.9
20260904135011 84 234 11.0 22.0 0.00 0.00 0.00 42 1016.0
20260904134511 84 223 8.0 21.0 0.00 0.00 0.00 42 1016.0
20260904134013 84 197 8.0 18.0 0.00 0.00 0.00 43 1016.1
20260904133510 84 191 10.0 22.0 0.00 0.00 0.00 43 1016.1
20260904133010 84 238 11.0 22.0 0.00 0.00 0.00 42 1016.1
20260904132507 84 241 9.0 17.0 0.00 0.00 0.00 43 1016.1
20260904132007 84 223 8.0 17.0 0.00 0.00 0.00 43 1016.2
20260904131506 84 221 7.0 17.0 0.00 0.00 0.00 41 1016.3
20260904131005 84 241 7.0 19.0 0.00 0.00 0.00 42 1016.3
20260904130506 84 261 10.0 21.0 0.00 0.00 0.00 43 1016.6
20260904130006 84 284 10.0 21.0 0.00 0.00 0.00 43 1016.6
20260904125503 84 267 10.0 20.0 0.00 0.00 0.00 42 1016.7
20260904125003 83 252 9.0 20.0 0.00 0.00 0.00 43 1016.7
20260904124504 83 232 10.0 20.0 0.00 0.00 0.00 42 1016.9
20260904124002 83 272 9.0 24.0 0.00 0.00 0.00 44 1016.9
20260904123503 83 286 9.0 24.0 0.00 0.00 0.00 44 1017.0
20260904123004 83 262 10.0 20.0 0.00 0.00 0.00 44 1017.0
20260904122505 83 247 9.0 20.0 0.00 0.00 0.00 44 1017.0
20260904122002 84 253 9.0 21.0 0.00 0.00 0.00 44 1017.0
20260904121502 83 324 9.0 21.0 0.00 0.00 0.00 45 1017.1
20260904121002 83 297 7.0 18.0 0.00 0.00 0.00 46 1017.2
20260904120504 83 271 8.0 17.0 0.00 0.00 0.00 47 1017.3
20260904120003 83 225 8.0 17.0 0.00 0.00 0.00 46 1017.4
20260904115503 83 245 8.0 21.0 0.00 0.00 0.00 47 1017.5
20260904115002 83 294 10.0 22.0 0.00 0.00 0.00 45 1017.6
20260904114502 83 300 10.0 22.0 0.00 0.00 0.00 45 1017.5
20260904114004 82 283 8.0 18.0 0.00 0.00 0.00 47 1017.6
20260904113456 82 232 8.0 18.0 0.00 0.00 0.00 47 1017.6
20260904112956 81 240 10.0 21.0 0.00 0.00 0.00 47 1017.7
20260904112448 81 236 10.0 21.0 0.00 0.00 0.00 49 1017.8
20260904111943 80 248 9.0 17.0 0.00 0.00 0.00 50 1017.9
20260904111439 80 218 9.0 17.0 0.00 0.00 0.00 49 1018.0
20260904110938 80 266 9.0 22.0 0.00 0.00 0.00 52 1018.1
20260904110438 79 254 9.0 22.0 0.00 0.00 0.00 50 1018.4
20260904105938 80 251 9.0 19.0 0.00 0.00 0.00 49 1018.2
20260904105437 79 233 10.0 20.0 0.00 0.00 0.00 49 1018.5
20260904104937 79 224 10.0 21.0 0.00 0.00 0.00 49 1018.4
20260904104437 79 202 10.0 21.0 0.00 0.00 0.00 50 1018.5
20260904103936 79 209 9.0 18.0 0.00 0.00 0.00 49 1018.6
20260904103435 79 257 7.0 15.0 0.00 0.00 0.00 52 1018.7
20260904102935 79 260 8.0 17.0 0.00 0.00 0.00 51 1018.6
20260904102435 79 280 8.0 17.0 0.00 0.00 0.00 50 1018.7
20260904101935 79 250 8.0 19.0 0.00 0.00 0.00 52 1018.7
20260904101434 79 271 10.0 19.0 0.00 0.00 0.00 50 1018.9
20260904100934 79 298 10.0 19.0 0.00 0.00 0.00 49 1019.1
20260904100432 79 233 8.0 19.0 0.00 0.00 0.00 51 1019.1
20260904095931 79 260 8.0 21.0 0.00 0.00 0.00 52 1019.2
20260904095431 79 245 10.0 21.0 0.00 0.00 0.00 51 1019.2
20260904094930 78 260 11.0 21.0 0.00 0.00 0.00 52 1019.4
20260904094430 79 239 10.0 21.0 0.00 0.00 0.00 52 1019.4
20260904093930 79 229 9.0 18.0 0.00 0.00 0.00 52 1019.6
20260904093430 78 294 9.0 21.0 0.00 0.00 0.00 52 1019.6
20260904092931 78 250 8.0 21.0 0.00 0.00 0.00 53 1019.7
20260904092430 78 214 9.0 17.0 0.00 0.00 0.00 52 1019.8
20260904091930 78 233 8.0 19.0 0.00 0.00 0.00 53 1019.8
20260904091431 77 269 8.0 22.0 0.00 0.00 0.00 55 1019.9
20260904090931 77 258 9.0 22.0 0.00 0.00 0.00 56 1019.9
20260904090431 76 272 9.0 19.0 0.00 0.00 0.00 55 1020.0
20260904085931 76 292 8.0 17.0 0.00 0.00 0.00 55 1020.0
20260904085430 75 252 7.0 13.0 0.00 0.00 0.00 56 1019.9
20260904084932 75 300 7.0 14.0 0.00 0.00 0.00 56 1020.0
20260904084432 75 221 9.0 16.0 0.00 0.00 0.00 55 1020.2
20260904083934 76 241 8.0 16.0 0.00 0.00 0.00 55 1020.2
20260904083453 76 252 7.0 14.0 0.00 0.00 0.00 55 1020.2
20260904082931 76 228 8.0 17.0 0.00 0.00 0.00 55 1020.3
20260904082433 76 243 8.0 17.0 0.00 0.00 0.00 55 1020.2
20260904081931 75 260 8.0 16.0 0.00 0.00 0.00 56 1020.2
20260904081431 75 226 7.0 15.0 0.00 0.00 0.00 56 1020.0
20260904080932 75 225 6.0 15.0 0.00 0.00 0.00 58 1020.2
20260904080430 74 238 7.0 14.0 0.00 0.00 0.00 59 1020.3
20260904075930 74 231 7.0 13.0 0.00 0.00 0.00 58 1020.2
20260904075431 74 266 6.0 14.0 0.00 0.00 0.00 59 1020.3
20260904074932 73 280 6.0 14.0 0.00 0.00 0.00 60 1020.3
20260904074430 73 223 7.0 14.0 0.00 0.00 0.00 60 1020.4
20260904073931 72 257 6.0 14.0 0.00 0.00 0.00 61 1020.3
20260904073431 72 238 7.0 16.0 0.00 0.00 0.00 62 1020.3
20260904072931 71 234 7.0 16.0 0.00 0.00 0.00 62 1020.3
20260904072434 71 253 6.0 14.0 0.00 0.00 0.00 63 1020.2
20260904071931 71 215 6.0 12.0 0.00 0.00 0.00 63 1020.3
20260904071431 71 266 7.0 12.0 0.00 0.00 0.00 63 1020.4
20260904070932 71 317 6.0 14.0 0.00 0.00 0.00 64 1020.4
20260904070431 71 228 6.0 14.0 0.00 0.00 0.00 64 1020.3
20260904065931 70 235 8.0 15.0 0.00 0.00 0.00 64 1020.3
20260904065430 70 229 8.0 17.0 0.00 0.00 0.00 65 1020.2
20260904064930 70 267 8.0 17.0 0.00 0.00 0.00 64 1020.3
20260904064431 70 234 7.0 17.0 0.00 0.00 0.00 65 1020.4
20260904063929 70 229 7.0 14.0 0.00 0.00 0.00 65 1020.5
20260904063431 70 267 7.0 13.0 0.00 0.00 0.00 65 1020.6
20260904062930 69 225 6.0 14.0 0.00 0.00 0.00 65 1020.5
20260904062430 69 209 6.0 14.0 0.00 0.00 0.00 67 1020.5
20260904061930 68 260 5.0 14.0 0.00 0.00 0.00 68 1020.6
20260904061430 68 261 6.0 14.0 0.00 0.00 0.00 68 1020.5
20260904060932 68 265 5.0 13.0 0.00 0.00 0.00 68 1020.4
20260904060428 67 246 5.0 10.0 0.00 0.00 0.00 69 1020.4
20260904055928 67 256 5.0 10.0 0.00 0.00 0.00 68 1020.3
20260904055428 67 242 5.0 10.0 0.00 0.00 0.00 69 1020.3
20260904054928 66 262 4.0 9.0 0.00 0.00 0.00 69 1020.3
20260904054428 66 275 4.0 11.0 0.00 0.00 0.00 69 1020.3
20260904053928 66 256 5.0 11.0 0.00 0.00 0.00 69 1020.4
20260904053429 65 248 4.0 8.0 0.00 0.00 0.00 69 1020.4
20260904052929 65 231 4.0 7.0 0.00 0.00 0.00 70 1020.3
20260904052429 65 247 4.0 7.0 0.00 0.00 0.00 71 1020.3
20260904051930 65 248 3.0 7.0 0.00 0.00 0.00 71 1020.3
20260904051426 64 243 2.0 5.0 0.00 0.00 0.00 71 1020.3
20260904050926 64 252 2.0 6.0 0.00 0.00 0.00 70 1020.2
20260904050428 64 257 2.0 6.0 0.00 0.00 0.00 70 1020.3
20260904045926 64 275 2.0 6.0 0.00 0.00 0.00 70 1020.3
20260904045426 65 255 2.0 6.0 0.00 0.00 0.00 70 1020.3
20260904044926 65 280 3.0 6.0 0.00 0.00 0.00 69 1020.3
20260904044426 65 240 4.0 10.0 0.00 0.00 0.00 69 1020.3
20260904043923 65 305 4.0 10.0 0.00 0.00 0.00 69 1020.3
20260904043420 65 226 4.0 8.0 0.00 0.00 0.00 69 1020.3
20260904042924 65 238 4.0 10.0 0.00 0.00 0.00 69 1020.3
20260904042920 65 241 5.0 10.0 0.00 0.00 0.00 69 1020.3
20260904041916 65 299 4.0 8.0 0.00 0.00 0.00 69 1020.3
20260904041417 65 271 4.0 9.0 0.00 0.00 0.00 68 1020.3
20260904040917 65 227 4.0 9.0 0.00 0.00 0.00 68 1020.4
20260904040417 65 308 3.0 9.0 0.00 0.00 0.00 68 1020.5
20260904035916 65 272 4.0 9.0 0.00 0.00 0.00 68 1020.5
20260904035405 65 289 4.0 9.0 0.00 0.00 0.00 68 1020.5
20260904034903 65 265 5.0 13.0 0.00 0.00 0.00 68 1020.5
20260904034402 65 244 5.0 13.0 0.00 0.00 0.00 68 1020.6
20260904033904 65 222 5.0 13.0 0.00 0.00 0.00 68 1020.5
20260904033403 65 248 6.0 13.0 0.00 0.00 0.00 68 1020.4
20260904032903 65 227 5.0 10.0 0.00 0.00 0.00 68 1020.4
20260904032404 65 231 4.0 9.0 0.00 0.00 0.00 68 1020.4
20260904031902 65 237 4.0 9.0 0.00 0.00 0.00 68 1020.5
20260904031401 65 242 4.0 7.0 0.00 0.00 0.00 68 1020.5
20260904030902 66 233 4.0 9.0 0.00 0.00 0.00 68 1020.6
20260904030401 66 266 4.0 9.0 0.00 0.00 0.00 68 1020.5
20260904025900 66 266 4.0 8.0 0.00 0.00 0.00 68 1020.6
20260904025401 65 250 3.0 7.0 0.00 0.00 0.00 69 1020.5
20260904024900 66 228 4.0 8.0 0.00 0.00 0.00 69 1020.4
20260904024400 66 232 5.0 9.0 0.00 0.00 0.00 69 1020.3
20260904023901 66 221 4.0 9.0 0.00 0.00 0.00 69 1020.3
20260904023400 66 231 4.0 8.0 0.00 0.00 0.00 69 1020.3
20260904022901 66 221 4.0 8.0 0.00 0.00 0.00 69 1020.4
20260904022400 66 252 4.0 8.0 0.00 0.00 0.00 69 1020.3
20260904021900 66 240 4.0 7.0 0.00 0.00 0.00 69 1020.3
20260904021358 66 248 4.0 8.0 0.00 0.00 0.00 69 1020.3
20260904020858 66 232 4.0 8.0 0.00 0.00 0.00 69 1020.3
20260904020357 65 257 4.0 9.0 0.00 0.00 0.00 69 1020.3
20260904015900 66 240 4.0 9.0 0.00 0.00 0.00 69 1020.3
20260904015358 65 257 4.0 8.0 0.00 0.00 0.00 69 1020.3
20260904014857 65 252 4.0 8.0 0.00 0.00 0.00 69 1020.3
20260904014358 65 235 4.0 9.0 0.00 0.00 0.00 70 1020.3
20260904013859 65 235 4.0 9.0 0.00 0.00 0.00 70 1020.3
20260904013355 65 232 4.0 8.0 0.00 0.00 0.00 70 1020.4
20260904012846 65 248 4.0 9.0 0.00 0.00 0.00 70 1020.4
20260904012346 65 247 4.0 9.0 0.00 0.00 0.00 71 1020.4
20260904011846 65 242 4.0 7.0 0.00 0.00 0.00 71 1020.4
20260904011347 65 224 4.0 8.0 0.00 0.00 0.00 71 1020.4
20260904010843 65 232 3.0 8.0 0.00 0.00 0.00 71 1020.5
20260904010345 65 244 3.0 8.0 0.00 0.00 0.00 71 1020.5
20260904005844 65 238 3.0 8.0 0.00 0.00 0.00 71 1020.5
20260904005341 65 248 4.0 8.0 0.00 0.00 0.00 71 1020.6
20260904004844 65 235 4.0 8.0 0.00 0.00 0.00 71 1020.6
20260904004338 65 240 4.0 7.0 0.00 0.00 0.00 71 1020.6
20260904003838 64 231 3.0 7.0 0.00 0.00 0.00 71 1020.7
20260904003339 64 269 3.0 7.0 0.00 0.00 0.00 71 1020.7
20260904002838 64 235 4.0 8.0 0.00 0.00 0.00 71 1020.7
20260904002340 64 226 4.0 8.0 0.00 0.00 0.00 72 1020.7
20260904001838 64 239 3.0 8.0 0.00 0.00 0.00 72 1020.8
20260904001338 64 220 3.0 6.0 0.00 0.00 0.00 72 1020.8
20260904000839 64 220 3.0 7.0 0.00 0.00 0.00 72 1020.9
20260904000340 64 240 3.0 7.0 0.00 0.00 0.00 72 1020.9
20260903235838 64 248 3.0 7.0 0.00 0.00 0.00 73 1021.0
20260903235338 64 261 3.0 6.0 0.00 0.00 0.00 73 1021.0
20260903234838 64 309 4.0 8.0 0.00 0.00 0.00 73 1021.1
20260903234339 63 276 4.0 8.0 0.00 0.00 0.00 74 1021.1
20260903233839 63 250 3.0 7.0 0.00 0.00 0.00 74 1021.1
20260903233338 63 229 3.0 6.0 0.00 0.00 0.00 74 1021.0
20260903232838 63 236 3.0 6.0 0.00 0.00 0.00 74 1021.0
20260903232339 63 243 3.0 6.0 0.00 0.00 0.00 74 1021.1
20260903231838 63 257 3.0 6.0 0.00 0.00 0.00 74 1021.0
20260903231339 63 244 3.0 5.0 0.00 0.00 0.00 74 1021.0
20260903230839 63 260 3.0 6.0 0.00 0.00 0.00 74 1021.1
20260903230346 63 230 2.0 6.0 0.00 0.00 0.00 74 1021.0
20260903225838 63 238 2.0 5.0 0.00 0.00 0.00 74 1021.0
20260903225336 63 248 2.0 5.0 0.00 0.00 0.00 74 1021.0
20260903224838 63 265 2.0 5.0 0.00 0.00 0.00 74 1021.1
20260903224335 63 260 2.0 5.0 0.00 0.00 0.00 74 1021.1
20260903223834 63 250 2.0 4.0 0.00 0.00 0.00 73 1021.2
20260903223334 64 252 3.0 6.0 0.00 0.00 0.00 73 1021.2
20260903222835 63 248 3.0 6.0 0.00 0.00 0.00 74 1021.2
20260903222333 63 238 3.0 6.0 0.00 0.00 0.00 74 1021.3
20260903221834 63 259 3.0 5.0 0.00 0.00 0.00 74 1021.3
20260903221332 63 228 3.0 6.0 0.00 0.00 0.00 74 1021.3
20260903220831 63 236 4.0 7.0 0.00 0.00 0.00 74 1021.3
20260903220330 63 269 4.0 7.0 0.00 0.00 0.00 75 1021.2
20260903215831 63 261 4.0 7.0 0.00 0.00 0.00 75 1021.2
20260903215330 63 254 4.0 7.0 0.00 0.00 0.00 75 1021.3
20260903214829 62 242 3.0 6.0 0.00 0.00 0.00 76 1021.4
20260903214328 62 236 2.0 6.0 0.00 0.00 0.00 76 1021.5
20260903213830 62 238 1.0 6.0 0.00 0.00 0.00 77 1021.5
20260903213329 62 260 1.0 3.0 0.00 0.00 0.00 76 1021.5
20260903212828 62 262 2.0 3.0 0.00 0.00 0.00 76 1021.5
20260903212327 62 261 2.0 3.0 0.00 0.00 0.00 75 1021.5
20260903211828 62 246 1.0 3.0 0.00 0.00 0.00 75 1021.3
20260903211323 63 257 0.0 3.0 0.00 0.00 0.00 74 1021.3
20260903210824 63 259 1.0 3.0 0.00 0.00 0.00 74 1021.6
20260903210325 63 259 1.0 4.0 0.00 0.00 0.00 74 1021.6
20260903205821 63 259 1.0 4.0 0.00 0.00 0.00 74 1021.5
20260903205322 63 251 1.0 4.0 0.00 0.00 0.00 73 1021.4
20260903204826 63 223 1.0 4.0 0.00 0.00 0.00 73 1021.5
20260903204322 63 272 2.0 6.0 0.00 0.00 0.00 72 1021.6
20260903203815 64 261 2.0 6.0 0.00 0.00 0.00 71 1021.4